Location: St. Louis
(38.6270°N, 90.1994°W)
Time: 07:19:13
(UTC-06:00)

Altair - Pass Details

Date: 06 December 2021
Orbit: 1501 x 1683 km, 47.2° (Epoch: 17 January)

Event Time Altitude Azimuth Distance (km) Brightness Sun altitude
Rises 16:23:18 0° 263° (W) 4,781 11.5 1.9°
Reaches altitude 10° 16:26:32 10° 267° (W) 3,772 10.8 1.3°
Maximum altitude 16:35:52 57° 345° (NNW) 1,769 7.8 -0.2°
Drops below altitude 10° 16:44:56 10° 63° (ENE) 3,666 8.8 -1.8°
Enters shadow 16:47:17 - 67° (ENE) 4,400 9.2 -2.2°
Sets 16:48:02 0° 68° (ENE) 4,640 - -2.3°
